This is the latest recevied weather packets stored in our database for station/object EB2EMZ-14. If no packets are shown the sender has not sent any weather packets the latest 10 day(s).
| Time | Temp. | Humidity | Pressure | Rain* | Wind** | Luminosity | Snow |
|---|---|---|---|---|---|---|---|
| 1777617316 | 16.67° C | 91% | 1018 hPa | 0 mm | - | 0 W/m² | - |
| 1777617014 | 15° C | 92% | 1018.1 hPa | 0 mm | - | 0 W/m² | - |
| 1777616716 | 13.89° C | 92% | 1018.1 hPa | 0 mm | - | 0 W/m² | - |
| 1777616415 | 12.78° C | 92% | 1018.1 hPa | 0 mm | - | 0 W/m² | - |
| 1777616115 | 11.67° C | 91% | 1018 hPa | 0 mm | - | 0 W/m² | - |
| 1777615815 | 11.67° C | 90% | 1018.1 hPa | 0 mm | - | 0 W/m² | - |
| 1777615514 | 11.11° C | 90% | 1018.1 hPa | 0 mm | - | 0 W/m² | - |
| 1777615215 | 11.11° C | 90% | 1018 hPa | 0 mm | - | 0 W/m² | - |
| 1777614916 | 11.11° C | 90% | 1018 hPa | 0 mm | - | 0 W/m² | - |
| 1777614614 | 11.11° C | 90% | 1018.2 hPa | 0 mm | - | 0 W/m² | - |
| 1777614313 | 11.11° C | 90% | 1018.2 hPa | 0 mm | - | 0 W/m² | - |
| 1777614014 | 11.11° C | 90% | 1018 hPa | 0 mm | - | 0 W/m² | - |
| 1777613715 | 11.11° C | 90% | 1018 hPa | 0 mm | - | 0 W/m² | - |
| 1777613414 | 11.11° C | 90% | 1018.1 hPa | 0 mm | - | 0 W/m² | - |
| 1777613113 | 11.11° C | 90% | 1018.1 hPa | 0 mm | - | 0 W/m² | - |
| 1777612814 | 11.11° C | 90% | 1018 hPa | 0 mm | - | 0 W/m² | - |
| 1777612513 | 11.11° C | 90% | 1017.8 hPa | 0 mm | - | 0 W/m² | - |
| 1777612213 | 11.11° C | 90% | 1017.8 hPa | 0 mm | - | 0 W/m² | - |
| 1777611914 | 11.11° C | 90% | 1017.7 hPa | 0 mm | - | 0 W/m² | - |
| 1777611613 | 11.11° C | 90% | 1017.7 hPa | 0 mm | - | 0 W/m² | - |
| 1777611313 | 11.11° C | 90% | 1017.6 hPa | 0 mm | - | 0 W/m² | - |
| 1777611013 | 11.67° C | 90% | 1017.7 hPa | 0 mm | - | 0 W/m² | - |
| 1777610713 | 11.67° C | 90% | 1017.7 hPa | 0 mm | - | 0 W/m² | - |
| 1777610413 | 11.11° C | 90% | 1017.6 hPa | 0 mm | - | 0 W/m² | - |
| 1777610114 | 11.11° C | 90% | 1017.6 hPa | 0 mm | - | 0 W/m² | - |
* Rain latest hour (hover to see other rain measurements)
** Current wind speed in m/s (hover to see current wind gust speed)